Location: Pian di Sc�
(43.6333°N, 11.5500°E)
Time: 18:18:15
(UTC+00:00)

Okean 1-7 Rocket - Pass Details

Date: 07 August 2020
Orbit: 617 x 648 km, 82.5° (Epoch: 17 September)

Event Time Altitude Azimuth Distance (km) Brightness Sun altitude
Rises 02:26:45 0° 344° (NNW) 2,904 7.4 -16.4°
Reaches altitude 10° 02:29:04 10° 337° (NNW) 1,996 6.4 -16.1°
Maximum altitude 02:33:11 40° 268° (W) 929 4.1 -15.5°
Enters shadow 02:35:05 26° 218° (SW) 1,235 4.5 -15.3°
